DW4063 Weather Reports


time (UTC)temp
C
wind
direction
speed
KPH
gust
KPH
rain 1hr
cm
rain 24hr
cm
rain mn
cm
humidity
%
barometer
mb
20260505051517 14 277 0.0 1.6 0.00 0.05 0.00 64 1002.8
20260505041536 16 311 0.0 8.0 0.00 0.05 0.05 67 1002.0
20260505040020 16 309 0.0 4.8 0.00 0.05 0.05 69 1002.0
20260505034516 16 281 1.6 6.4 0.00 0.05 0.05 71 1002.1
20260505033011 16 221 1.6 6.4 0.00 0.05 0.05 71 1002.0
20260505031531 16 214 1.6 6.4 0.00 0.05 0.05 70 1001.6
20260505030024 16 301 1.6 8.0 0.00 0.05 0.05 71 1001.4
20260505023022 17 279 0.0 6.4 0.00 0.05 0.05 69 1001.3
20260505021516 17 194 1.6 6.4 0.00 0.05 0.05 68 1000.7
20260505020013 17 211 3.2 6.4 0.00 0.05 0.05 68 1000.3
20260505014526 17 236 1.6 4.8 0.00 0.05 0.05 70 1000.1
20260505013025 17 207 1.6 9.7 0.00 0.05 0.05 71 999.8
20260505011524 17 184 3.2 11.3 0.00 0.05 0.05 72 999.8
20260505010023 17 218 3.2 11.3 0.00 0.05 0.05 70 999.6
20260505003016 18 223 1.6 6.4 0.00 0.05 0.05 71 999.2
20260505001528 18 221 1.6 11.3 0.03 0.05 0.05 69 999.0
20260505000031 17 161 0.0 3.2 0.03 0.05 0.05 80 999.6
20260504234522 17 100 0.0 3.2 0.03 0.05 0.05 77 998.9
20260504231517 20 314 8.0 22.5 0.00 0.03 0.03 56 999.6
20260504230029 21 191 0.0 1.6 0.03 0.03 0.03 68 997.7
20260504224534 22 138 0.0 9.7 0.03 0.03 0.03 59 998.2
20260504223025 22 197 3.2 12.9 0.03 0.03 0.03 59 998.8
20260504221526 23 197 4.8 22.5 0.03 0.03 0.03 54 998.9
20260504220024 25 215 1.6 19.3 0.00 0.00 0.00 48 998.8
20260504214535 26 190 6.4 19.3 0.00 0.00 0.00 36 998.6
20260504213029 26 200 1.6 12.9 0.00 0.00 0.00 38 998.6
20260504211518 26 177 4.8 19.3 0.00 0.00 0.00 35 999.0
20260504210026 26 193 4.8 14.5 0.00 0.00 0.00 34 999.2
20260504203006 27 197 8.0 24.1 0.00 0.00 0.00 34 999.4
20260504201524 27 306 4.8 16.1 0.00 0.00 0.00 35 999.5
20260504194520 25 255 3.2 16.1 0.00 0.00 0.00 38 1000.1
20260504193016 26 198 6.4 20.9 0.00 0.00 0.00 35 1000.3
20260504191513 26 223 6.4 19.3 0.00 0.00 0.00 36 1000.2
20260504190008 26 219 8.0 19.3 0.00 0.00 0.00 34 1000.3
20260504183026 26 323 3.2 19.3 0.00 0.00 0.00 30 1000.5
20260504181520 25 205 4.8 19.3 0.00 0.00 0.00 32 1000.5
20260504174516 25 189 4.8 19.3 0.00 0.00 0.00 35 1001.1
20260504171524 23 212 4.8 14.5 0.00 0.00 0.00 37 1001.5
20260504081526 7 16 0.0 0.0 0.00 0.18 0.00 86 1004.9